Terminal Aerodrome Forecast
Issued by NWS

Home | Current Version | Previous Version | Graphics & Text | Print | Product List | Glossary On
Versions: 1 2 3 4 5 6 7 8 9 10 11 12 13 14 15 16 17 18 19 20 21 22 23 24 25 26 27 28 29 30 31 32 33
000
FTUS42 KMHX 220200 AAB
TAFOAJ
TAF AMD
KOAJ 220244Z 2203/2224 03010KT 5SM -RA BKN035 OVC040
     FM220600 02010KT 5SM -RA OVC008
     FM220900 02010KT 4SM -RA OVC004
     FM221900 35005KT 4SM -DZ OVC004
      AMD LTD TO CLD VIS AND WIND=

USA.gov is the U.S. government's official web portal to all federal, state and local government web resources and services.